This demonstration page uses our WeatherBlox Daily Observations layout. Learn more.

Left ArrowRight Arrow

Hourly Observations for September 13, 2019

Temp ( °F °C ) Dew Point ( °F °C ) Humidity (%) Winds ( mph kmh ) Pressure ( in mb ) Visibility ( mi km ) Precip ( " mm )
12:53 am 00:53 Clear 59 15 48 8.9 67 67 NW 8 13 30.16 1022 10 16 0.00 0.00
1:53 am 01:53 Clear 56 13.3 48 8.9 75 75 W 7 11 30.16 1021 10 16 0.00 0.00
2:53 am 02:53 Clear 54 12.2 48 8.9 80 80 W 8 13 30.18 1022 10 16 0.00 0.00
3:53 am 03:53 Clear 52 11.1 48 8.9 86 86 WNW 6 9 30.18 1022 10 16 0.00 0.00
4:53 am 04:53 Clear 52 11.1 48 8.9 86 86 WSW 6 9 30.20 1023 10 16 0.00 0.00
5:53 am 05:53 Clear 52 11.1 47 8.3 83 83 WSW 3 6 30.21 1023 10 16 0.00 0.00
6:53 am 06:53 Clear 51 10.6 47 8.3 86 86 WSW 6 9 30.22 1023 10 16 0.00 0.00
7:53 am 07:53 Sunny 54 12.2 48 8.9 80 80 WSW 9 15 30.23 1024 10 16 0.00 0.00
8:53 am 08:53 Sunny 61 16.1 49 9.4 65 65 W 10 17 30.23 1024 10 16 0.00 0.00
9:53 am 09:53 Sunny 66 18.9 50 10 56 56 WNW 14 22 30.23 1024 10 16 0.00 0.00
10:53 am 10:53 Sunny 70 21.1 50 10 49 49 W 10 17 30.22 1024 10 16 0.00 0.00
11:53 am 11:53 Sunny 74 23.3 48 8.9 40 40 W 9 15 30.21 1023 10 16 0.00 0.00
12:53 pm 12:53 Sunny 77 25 49 9.4 37 37 W 9 15 30.20 1023 10 16 0.00 0.00
1:53 pm 13:53 Sunny 79 26.1 49 9.4 35 35 WSW 9 15 30.19 1022 10 16 0.00 0.00
2:53 pm 14:53 Sunny 79 26.1 49 9.4 35 35 W 9 15 30.16 1021 10 16 0.00 0.00
3:53 pm 15:53 Sunny 80 26.7 50 10 35 35 WSW 10 17 30.14 1021 10 16 0.00 0.00
4:53 pm 16:53 Sunny 80 26.7 51 10.6 37 37 SSW 7 11 30.12 1020 10 16 0.00 0.00
5:53 pm 17:53 Sunny 80 26.7 51 10.6 37 37 SSW 8 13 30.11 1020 10 16 0.00 0.00
6:53 pm 18:53 Sunny 78 25.6 52 11.1 40 40 SSW 5 7 30.11 1020 10 16 0.00 0.00
7:53 pm 19:53 Clear 74 23.3 56 13.3 54 54 S 6 9 30.12 1020 10 16 0.00 0.00
8:53 pm 20:53 Clear 71 21.7 55 12.8 57 57 S 7 11 30.11 1020 10 16 0.00 0.00
9:53 pm 21:53 Clear 70 21.1 54 12.2 57 57 S 9 15 30.11 1020 10 16 0.00 0.00
10:53 pm 22:53 Clear 68 20 55 12.8 63 63 S 13 20 30.11 1020 10 16 0.00 0.00
11:53 pm 23:53 Clear 67 19.4 54 12.2 63 63 S 9 15 30.10 1019 10 16 0.00 0.00

Powered by AerisWeather